sat.trackr.live / text

‹ back to catalog

STARLINK-34861

NORAD 66368 · 2025-254W

PAYLOAD ACTIVE UNKNOWN

§ Identity

Operator
Country
US
Launch date
2025-11-06
Launch site
AFWTR
Launch vehicle
Mass (kg)
RCS (m²)

Purposes: comms

External: N2YO · Heavens-Above · Gunter

§ Orbital elements

Epoch: 2026-09-20T20:55:46.956000Z

Period
93.85 min
Inclination
53.1582°
Eccentricity
0.0001109
Mean motion
15.34396007 rev/d
Perigee alt
462.0 km
Apogee alt
463.5 km
Semi-major
6,840.9 km
B*
5.2117e-4
RAAN
41.9260°
Arg perigee
39.5603°
Mean anomaly
320.5481°
Rev number
4,891

§ Raw data

STARLINK-348611 66368U 25254W   26263.87207125  .00017271  00000+0  52117-3 0  99942 66368  53.1582  41.9260 0001109  39.5603 320.5481 15.34396007 48917

JSON: /api/v1/satellites/66368 · /tle

For live sub-satellite position, see the globe view (requires WebGL).

§ Visibility from observer

Set your observer location to see the next 7 days of passes ≥ 10°. The values pass through the URL so the page stays shareable.

No JS? Fill the form by hand. The geolocation button needs JavaScript.